4 月 20 日 (星期五) | 會員登記|會員中心
買賣區主頁 > 手錶 > 其它 (191)
所有物品 | 出售 | 徵求 排序 :  更新時間 | 刊登時間
 圖片 標題 價格 賣方/買方 瀏覽 更新時間
Rolex 原裝錶盒HK$800zoom123418820/04 13:54
手錶福袋HK$288ellen20117520/04 09:27
出售 ROSS Rino真皮錶座(9個)HK$40鄉麗麗6720/04 06:54
 New迪士尼Tsum tsum錶HK$230allen_cwl42120/04 02:42
CARTIER卡地西手錶清潔套裝HK$88ming256510020/04 00:34
Seiko 精工座枱鬧鐘(壞),有燈。HK$40s2016t22219/04 22:31
24mm 真皮錶帶 全新 黑色 及 啡紅色 合 Panerai Omega Seiko Citizen Hamilton TissotHK$100hk428831819/04 22:03
[FS]Panerai 代用表帶(wotancraft 74錶帶)HK$650fcmt12319/04 21:51
徵求BALL手表盒一個HK$200uuxxzz8919/04 21:44
自動上鏈錶盒 Watch winder (全新)HK$398CWD36719/04 19:23
24 mm 潜水膠帶HK$50cck38810319/04 17:07
90%新CATALYST® CASE FOR 42MM APPLE WATCH SERIES 2 (請詳看內容)HK$200tnyuen562910819/04 16:36
手錶展示架HK$234(173)10019/04 14:18
自動機械錶轉盤錶盒HK$550hoyung36419/04 13:17
出售 Casio Pro Trek PRG-130T-7VDR titanium watch bandHK$1,500manli12712919/04 12:43
DIY 另類製作 ( 只此一套 ) 啡色鴕鳥皮錶帶HK$180dandytsang15919/04 12:03
 Sell 98% new Seiko Kinetic WatchHK$2,300bikram35519/04 10:50
十隻裝鑽石紋高清玻璃錶盒HK$350mos68528619/04 10:26
全新 開錶工具一套 (有齊所有工具)HK$45鄉麗麗11019/04 06:50
ROLEX BOXHK$200PEZTAI220316719/04 00:25
VINTAGE ROLEX BOXHK$600PEZTAI220314119/04 00:23
20mm靚仔表帶HK$100uuxxzz14818/04 21:13
古董 Vintage 50's Rolex 手上弦男庒日曆 6694 not omega tudor seikoHK$11,800kenjimiller31018/04 18:12
(全新)頭盔型桌上時計HK$50cpy081926118/04 17:45
Daniel Wellington 手錶HK$200queen1216418/04 16:13
自動上鏈木殼錶盒HK$500LarryKing29218/04 13:09
22mm沛海款啡紅大扣表帶HK$100uuxxzz10118/04 12:06
DIY 另類製作 ( 只此一套 ) 鴕鳥皮錶帶HK$180dandytsang38418/04 11:56
20mm鋼表帶HK$90uuxxzz12318/04 11:52
20mm表帶三條HK$100uuxxzz12918/04 11:41